| time (UTC) | temp F | wind direction | speed MPH | gust MPH | rain 1hr in | rain 24hr in | rain mn in | humidity % | barometer mb |
| 20260510201503 | 67 | 132 | 9.0 | 14.0 | 0.00 | 0.00 | 0.00 | 42 | 1015.8 |
| 20260510201003 | 68 | 143 | 6.0 | 10.0 | 0.00 | 0.00 | 0.00 | 41 | 1015.9 |
| 20260510200502 | 68 | 148 | 3.0 | 10.0 | 0.00 | 0.00 | 0.00 | 40 | 1015.9 |
| 20260510200003 | 69 | 108 | 4.0 | 10.0 | 0.00 | 0.00 | 0.00 | 40 | 1016.0 |
| 20260510195502 | 69 | 168 | 2.0 | 14.0 | 0.00 | 0.00 | 0.00 | 41 | 1015.9 |
| 20260510195003 | 68 | 165 | 1.0 | 18.0 | 0.00 | 0.00 | 0.00 | 41 | 1015.9 |
| 20260510194503 | 67 | 134 | 11.0 | 18.0 | 0.00 | 0.00 | 0.00 | 42 | 1015.8 |
| 20260510194003 | 67 | 148 | 3.0 | 11.0 | 0.00 | 0.00 | 0.00 | 41 | 1016.0 |
| 20260510193502 | 66 | 178 | 4.0 | 11.0 | 0.00 | 0.00 | 0.00 | 45 | 1015.9 |
| 20260510193003 | 66 | 120 | 8.0 | 11.0 | 0.00 | 0.00 | 0.00 | 44 | 1015.8 |
| 20260510192503 | 66 | 128 | 4.0 | 9.0 | 0.00 | 0.00 | 0.00 | 46 | 1015.8 |
| 20260510192002 | 66 | 105 | 4.0 | 9.0 | 0.00 | 0.00 | 0.00 | 44 | 1015.9 |
| 20260510191504 | 66 | 122 | 4.0 | 9.0 | 0.00 | 0.00 | 0.00 | 45 | 1016.0 |
| 20260510191002 | 66 | 117 | 2.0 | 9.0 | 0.00 | 0.00 | 0.00 | 46 | 1016.0 |
| 20260510190503 | 66 | 149 | 6.0 | 10.0 | 0.00 | 0.00 | 0.00 | 44 | 1016.0 |
| 20260510190002 | 67 | 136 | 2.0 | 10.0 | 0.00 | 0.00 | 0.00 | 44 | 1016.0 |
| 20260510185503 | 68 | 132 | 6.0 | 11.0 | 0.00 | 0.00 | 0.00 | 44 | 1016.1 |
| 20260510185002 | 67 | 138 | 3.0 | 12.0 | 0.00 | 0.00 | 0.00 | 46 | 1016.1 |
| 20260510184524 | 67 | 162 | 4.0 | 12.0 | 0.00 | 0.00 | 0.00 | 45 | 1016.1 |
| 20260510184023 | 66 | 193 | 2.0 | 11.0 | 0.00 | 0.00 | 0.00 | 46 | 1016.0 |
| 20260510183503 | 65 | 160 | 4.0 | 11.0 | 0.00 | 0.00 | 0.00 | 48 | 1016.1 |
| 20260510183003 | 65 | 152 | 5.0 | 13.0 | 0.00 | 0.00 | 0.00 | 49 | 1016.1 |
| 20260510182503 | 65 | 128 | 2.0 | 13.0 | 0.00 | 0.00 | 0.00 | 49 | 1016.2 |
| 20260510182003 | 66 | 152 | 6.0 | 12.0 | 0.00 | 0.00 | 0.00 | 50 | 1016.3 |
| 20260510181502 | 65 | 149 | 2.0 | 11.0 | 0.00 | 0.00 | 0.00 | 52 | 1016.3 |
| 20260510181003 | 65 | 142 | 5.0 | 11.0 | 0.00 | 0.00 | 0.00 | 52 | 1016.4 |
| 20260510180502 | 62 | 156 | 5.0 | 9.0 | 0.00 | 0.00 | 0.00 | 56 | 1016.3 |
| 20260510180003 | 60 | 142 | 3.0 | 8.0 | 0.00 | 0.00 | 0.00 | 60 | 1016.5 |
| 20260510175503 | 59 | 133 | 2.0 | 7.0 | 0.00 | 0.00 | 0.00 | 59 | 1016.6 |
| 20260510175003 | 59 | 122 | 2.0 | 7.0 | 0.00 | 0.00 | 0.00 | 60 | 1016.6 |
| 20260510174546 | 59 | 141 | 2.0 | 10.0 | 0.00 | 0.00 | 0.00 | 60 | 1016.7 |
| 20260510174003 | 59 | 143 | 3.0 | 10.0 | 0.00 | 0.00 | 0.00 | 60 | 1016.7 |
| 20260510173503 | 60 | 155 | 4.0 | 8.0 | 0.00 | 0.00 | 0.00 | 59 | 1016.6 |
| 20260510173023 | 60 | 154 | 3.0 | 9.0 | 0.00 | 0.00 | 0.00 | 58 | 1016.7 |
| 20260510172524 | 60 | 128 | 4.0 | 9.0 | 0.00 | 0.00 | 0.00 | 57 | 1016.7 |
| 20260510172003 | 61 | 125 | 2.0 | 9.0 | 0.00 | 0.00 | 0.00 | 55 | 1016.6 |
| 20260510171503 | 61 | 132 | 4.0 | 9.0 | 0.00 | 0.00 | 0.00 | 55 | 1016.5 |
| 20260510171002 | 61 | 162 | 4.0 | 8.0 | 0.00 | 0.00 | 0.00 | 57 | 1016.5 |
| 20260510170503 | 60 | 121 | 3.0 | 8.0 | 0.00 | 0.00 | 0.00 | 56 | 1016.5 |
| 20260510170023 | 60 | 135 | 3.0 | 10.0 | 0.00 | 0.00 | 0.00 | 57 | 1016.5 |
| 20260510165503 | 60 | 111 | 4.0 | 10.0 | 0.00 | 0.00 | 0.00 | 56 | 1016.5 |
| 20260510165023 | 61 | 135 | 3.0 | 10.0 | 0.00 | 0.00 | 0.00 | 55 | 1016.4 |
| 20260510164524 | 61 | 106 | 3.0 | 8.0 | 0.00 | 0.00 | 0.00 | 56 | 1016.5 |
| 20260510164002 | 61 | 138 | 3.0 | 9.0 | 0.00 | 0.00 | 0.00 | 56 | 1016.6 |
| 20260510163545 | 61 | 129 | 3.0 | 9.0 | 0.00 | 0.00 | 0.00 | 57 | 1016.6 |
| 20260510163024 | 60 | 138 | 3.0 | 8.0 | 0.00 | 0.00 | 0.00 | 58 | 1016.6 |
| 20260510162502 | 60 | 90 | 2.0 | 8.0 | 0.00 | 0.00 | 0.00 | 59 | 1016.6 |
| 20260510162003 | 60 | 163 | 1.0 | 9.0 | 0.00 | 0.00 | 0.00 | 59 | 1016.6 |
| 20260510161503 | 60 | 137 | 4.0 | 9.0 | 0.00 | 0.00 | 0.00 | 59 | 1016.6 |
| 20260510161003 | 59 | 141 | 2.0 | 8.0 | 0.00 | 0.00 | 0.00 | 60 | 1016.6 |
| 20260510160503 | 59 | 124 | 2.0 | 8.0 | 0.00 | 0.00 | 0.00 | 61 | 1016.6 |
| 20260510160003 | 58 | 116 | 0.0 | 4.0 | 0.00 | 0.00 | 0.00 | 65 | 1016.6 |
| 20260510155502 | 58 | 101 | 1.0 | 4.0 | 0.00 | 0.00 | 0.00 | 65 | 1016.7 |
| 20260510155003 | 58 | 112 | 2.0 | 5.0 | 0.00 | 0.00 | 0.00 | 64 | 1016.7 |
| 20260510154502 | 58 | 132 | 1.0 | 5.0 | 0.00 | 0.00 | 0.00 | 66 | 1016.8 |
| 20260510154003 | 57 | 126 | 2.0 | 5.0 | 0.00 | 0.00 | 0.00 | 67 | 1016.7 |
| 20260510153502 | 56 | 132 | 1.0 | 4.0 | 0.00 | 0.00 | 0.00 | 68 | 1016.7 |
| 20260510153003 | 56 | 106 | 2.0 | 3.0 | 0.00 | 0.00 | 0.00 | 68 | 1016.7 |
| 20260510152502 | 56 | 109 | 1.0 | 3.0 | 0.00 | 0.00 | 0.00 | 69 | 1016.7 |
| 20260510152003 | 55 | 93 | 1.0 | 2.0 | 0.00 | 0.00 | 0.00 | 71 | 1016.6 |
| 20260510151502 | 55 | 91 | 0.0 | 1.0 | 0.00 | 0.00 | 0.00 | 71 | 1016.6 |
| 20260510151024 | 55 | 91 | 0.0 | 1.0 | 0.00 | 0.00 | 0.00 | 70 | 1016.5 |
| 20260510150524 | 54 | 91 | 0.0 | 1.0 | 0.00 | 0.00 | 0.00 | 71 | 1016.6 |
| 20260510150002 | 54 | 91 | 0.0 | 2.0 | 0.00 | 0.00 | 0.00 | 71 | 1016.6 |
| 20260510145503 | 54 | 91 | 0.0 | 2.0 | 0.00 | 0.00 | 0.00 | 72 | 1016.6 |
| 20260510145003 | 54 | 89 | 1.0 | 2.0 | 0.00 | 0.00 | 0.00 | 73 | 1016.6 |
| 20260510144503 | 54 | 86 | 0.0 | 0.0 | 0.00 | 0.00 | 0.00 | 74 | 1016.6 |
| 20260510144002 | 54 | 85 | 0.0 | 1.0 | 0.00 | 0.00 | 0.00 | 75 | 1016.7 |
| 20260510143503 | 54 | 86 | 0.0 | 1.0 | 0.00 | 0.00 | 0.00 | 76 | 1016.7 |
| 20260510143002 | 54 | 85 | 0.0 | 1.0 | 0.00 | 0.00 | 0.00 | 77 | 1016.6 |
| 20260510142503 | 54 | 85 | 0.0 | 1.0 | 0.00 | 0.00 | 0.00 | 77 | 1016.6 |
| 20260510142002 | 54 | 86 | 0.0 | 2.0 | 0.00 | 0.00 | 0.00 | 77 | 1016.6 |
| 20260510141503 | 54 | 85 | 0.0 | 2.0 | 0.00 | 0.00 | 0.00 | 76 | 1016.6 |
| 20260510141002 | 54 | 121 | 0.0 | 0.0 | 0.00 | 0.00 | 0.00 | 76 | 1016.5 |
| 20260510140503 | 54 | 121 | 0.0 | 1.0 | 0.00 | 0.00 | 0.00 | 76 | 1016.4 |
| 20260510140002 | 54 | 121 | 0.0 | 1.0 | 0.00 | 0.00 | 0.00 | 76 | 1016.3 |
| 20260510135503 | 54 | 121 | 0.0 | 1.0 | 0.00 | 0.00 | 0.00 | 77 | 1016.2 |
| 20260510135002 | 54 | 121 | 0.0 | 0.0 | 0.00 | 0.00 | 0.00 | 79 | 1016.2 |
| 20260510134503 | 53 | 121 | 0.0 | 0.0 | 0.00 | 0.00 | 0.00 | 79 | 1016.2 |
| 20260510134002 | 53 | 121 | 0.0 | 0.0 | 0.00 | 0.00 | 0.00 | 79 | 1016.2 |
| 20260510133503 | 53 | 121 | 0.0 | 0.0 | 0.00 | 0.00 | 0.00 | 79 | 1016.1 |
| 20260510132503 | 53 | 121 | 0.0 | 1.0 | 0.00 | 0.00 | 0.00 | 82 | 1016.0 |
| 20260510132002 | 52 | 121 | 0.0 | 0.0 | 0.00 | 0.00 | 0.00 | 84 | 1016.1 |
| 20260510131503 | 52 | 121 | 0.0 | 1.0 | 0.00 | 0.00 | 0.00 | 84 | 1016.1 |
| 20260510131023 | 52 | 121 | 0.0 | 1.0 | 0.00 | 0.00 | 0.00 | 85 | 1016.0 |
| 20260510130503 | 51 | 117 | 0.0 | 1.0 | 0.00 | 0.00 | 0.00 | 86 | 1015.9 |
| 20260510130002 | 51 | 117 | 0.0 | 1.0 | 0.00 | 0.00 | 0.00 | 86 | 1015.9 |
| 20260510125503 | 50 | 117 | 0.0 | 0.0 | 0.00 | 0.00 | 0.00 | 86 | 1015.8 |
| 20260510125002 | 50 | 117 | 0.0 | 0.0 | 0.00 | 0.00 | 0.00 | 86 | 1015.7 |
| 20260510124503 | 50 | 117 | 0.0 | 0.0 | 0.00 | 0.00 | 0.00 | 86 | 1015.7 |
| 20260510123502 | 50 | 117 | 0.0 | 1.0 | 0.00 | 0.00 | 0.00 | 86 | 1015.6 |
| 20260510123003 | 50 | 117 | 0.0 | 1.0 | 0.00 | 0.00 | 0.00 | 86 | 1015.6 |
| 20260510122502 | 50 | 117 | 0.0 | 1.0 | 0.00 | 0.00 | 0.00 | 86 | 1015.5 |
| 20260510122003 | 50 | 117 | 0.0 | 0.0 | 0.00 | 0.00 | 0.00 | 86 | 1015.5 |
| 20260510121503 | 50 | 117 | 0.0 | 0.0 | 0.00 | 0.00 | 0.00 | 86 | 1015.5 |
| 20260510120524 | 50 | 117 | 0.0 | 0.0 | 0.00 | 0.00 | 0.00 | 87 | 1015.4 |
| 20260510120002 | 50 | 117 | 0.0 | 0.0 | 0.00 | 0.00 | 0.00 | 87 | 1015.4 |
| 20260510115503 | 50 | 117 | 0.0 | 0.0 | 0.00 | 0.00 | 0.00 | 87 | 1015.4 |
| 20260510115002 | 50 | 117 | 0.0 | 0.0 | 0.00 | 0.00 | 0.00 | 87 | 1015.4 |
| 20260510114503 | 50 | 117 | 0.0 | 0.0 | 0.00 | 0.00 | 0.00 | 87 | 1015.3 |
| 20260510114002 | 50 | 117 | 0.0 | 0.0 | 0.00 | 0.00 | 0.00 | 87 | 1015.2 |
| 20260510113545 | 50 | 117 | 0.0 | 1.0 | 0.00 | 0.00 | 0.00 | 87 | 1015.2 |
| 20260510113003 | 50 | 117 | 0.0 | 1.0 | 0.00 | 0.00 | 0.00 | 87 | 1015.2 |
| 20260510112502 | 50 | 117 | 0.0 | 1.0 | 0.00 | 0.00 | 0.00 | 87 | 1015.3 |
| 20260510112024 | 50 | 117 | 1.0 | 1.0 | 0.00 | 0.00 | 0.00 | 87 | 1015.3 |
| 20260510111524 | 50 | 117 | 0.0 | 1.0 | 0.00 | 0.00 | 0.00 | 87 | 1015.3 |
| 20260510111003 | 50 | 117 | 0.0 | 2.0 | 0.00 | 0.00 | 0.00 | 87 | 1015.2 |
| 20260510110503 | 50 | 117 | 0.0 | 2.0 | 0.00 | 0.00 | 0.00 | 87 | 1015.2 |
| 20260510110002 | 50 | 105 | 1.0 | 2.0 | 0.00 | 0.00 | 0.00 | 87 | 1015.2 |
| 20260510105524 | 50 | 46 | 0.0 | 1.0 | 0.00 | 0.00 | 0.00 | 87 | 1015.2 |
| 20260510104503 | 50 | 46 | 0.0 | 0.0 | 0.00 | 0.00 | 0.00 | 87 | 1015.1 |
| 20260510103524 | 50 | 46 | 0.0 | 1.0 | 0.00 | 0.00 | 0.00 | 87 | 1015.2 |
| 20260510103003 | 50 | 47 | 0.0 | 0.0 | 0.00 | 0.00 | 0.00 | 87 | 1015.2 |
| 20260510102524 | 50 | 46 | 0.0 | 0.0 | 0.00 | 0.00 | 0.00 | 87 | 1015.2 |
| 20260510102002 | 50 | 46 | 0.0 | 0.0 | 0.00 | 0.00 | 0.00 | 87 | 1015.3 |
| 20260510101503 | 50 | 47 | 0.0 | 2.0 | 0.00 | 0.00 | 0.00 | 87 | 1015.3 |
| 20260510101003 | 50 | 46 | 0.0 | 2.0 | 0.00 | 0.00 | 0.00 | 87 | 1015.3 |
| 20260510100502 | 50 | 48 | 0.0 | 2.0 | 0.00 | 0.00 | 0.00 | 86 | 1015.2 |
| 20260510100003 | 50 | 48 | 1.0 | 2.0 | 0.00 | 0.00 | 0.00 | 86 | 1015.1 |
| 20260510095523 | 50 | 46 | 1.0 | 3.0 | 0.00 | 0.00 | 0.00 | 86 | 1015.1 |
| 20260510095003 | 50 | 40 | 1.0 | 3.0 | 0.00 | 0.00 | 0.00 | 86 | 1015.1 |
| 20260510094502 | 50 | 28 | 1.0 | 3.0 | 0.00 | 0.00 | 0.00 | 85 | 1015.2 |
| 20260510094024 | 50 | 25 | 1.0 | 4.0 | 0.00 | 0.00 | 0.00 | 85 | 1015.2 |
| 20260510093502 | 50 | 26 | 2.0 | 4.0 | 0.00 | 0.00 | 0.00 | 85 | 1015.2 |
| 20260510093024 | 50 | 18 | 2.0 | 5.0 | 0.00 | 0.00 | 0.00 | 85 | 1015.2 |
| 20260510092523 | 50 | 23 | 2.0 | 5.0 | 0.00 | 0.00 | 0.00 | 85 | 1015.2 |
| 20260510092003 | 50 | 24 | 2.0 | 4.0 | 0.00 | 0.00 | 0.00 | 84 | 1015.2 |
| 20260510091502 | 50 | 45 | 1.0 | 4.0 | 0.00 | 0.00 | 0.00 | 84 | 1015.0 |
| 20260510091003 | 50 | 45 | 1.0 | 4.0 | 0.00 | 0.00 | 0.00 | 83 | 1014.9 |
| 20260510090502 | 51 | 48 | 2.0 | 4.0 | 0.00 | 0.00 | 0.00 | 83 | 1014.7 |
| 20260510090024 | 51 | 46 | 2.0 | 4.0 | 0.00 | 0.00 | 0.00 | 83 | 1014.7 |
| 20260510085502 | 51 | 29 | 2.0 | 4.0 | 0.00 | 0.00 | 0.00 | 83 | 1014.8 |
| 20260510085003 | 51 | 27 | 2.0 | 4.0 | 0.00 | 0.00 | 0.00 | 82 | 1014.8 |
| 20260510084502 | 51 | 51 | 1.0 | 4.0 | 0.00 | 0.00 | 0.00 | 82 | 1014.8 |
| 20260510084003 | 51 | 49 | 1.0 | 3.0 | 0.00 | 0.00 | 0.00 | 82 | 1014.7 |
| 20260510083502 | 51 | 62 | 1.0 | 4.0 | 0.00 | 0.00 | 0.00 | 82 | 1014.7 |
| 20260510083003 | 51 | 61 | 1.0 | 4.0 | 0.00 | 0.00 | 0.00 | 82 | 1014.7 |
| 20260510082503 | 51 | 60 | 1.0 | 4.0 | 0.00 | 0.00 | 0.00 | 81 | 1014.6 |
| 20260510082003 | 51 | 58 | 1.0 | 4.0 | 0.00 | 0.00 | 0.00 | 81 | 1014.6 |
| 20260510081502 | 51 | 43 | 1.0 | 4.0 | 0.00 | 0.00 | 0.00 | 80 | 1014.6 |
| 20260510081003 | 51 | 60 | 1.0 | 4.0 | 0.00 | 0.00 | 0.00 | 80 | 1014.6 |
| 20260510080523 | 51 | 54 | 2.0 | 4.0 | 0.00 | 0.00 | 0.00 | 80 | 1014.6 |
| 20260510080003 | 51 | 59 | 1.0 | 4.0 | 0.00 | 0.00 | 0.00 | 79 | 1014.5 |
| 20260510075503 | 51 | 51 | 2.0 | 4.0 | 0.00 | 0.00 | 0.00 | 79 | 1014.5 |
| 20260510075003 | 51 | 48 | 2.0 | 4.0 | 0.00 | 0.00 | 0.00 | 79 | 1014.4 |
| 20260510074503 | 52 | 46 | 2.0 | 6.0 | 0.00 | 0.00 | 0.00 | 79 | 1014.3 |
| 20260510074003 | 52 | 56 | 2.0 | 6.0 | 0.00 | 0.00 | 0.00 | 78 | 1014.3 |
| 20260510073503 | 52 | 54 | 1.0 | 7.0 | 0.00 | 0.00 | 0.00 | 78 | 1014.2 |
| 20260510073002 | 52 | 47 | 2.0 | 8.0 | 0.00 | 0.00 | 0.00 | 78 | 1014.1 |
| 20260510072503 | 52 | 50 | 2.0 | 8.0 | 0.00 | 0.00 | 0.00 | 77 | 1014.1 |
| 20260510072002 | 52 | 59 | 3.0 | 8.0 | 0.00 | 0.00 | 0.00 | 77 | 1014.2 |
| 20260510071503 | 52 | 65 | 2.0 | 7.0 | 0.00 | 0.00 | 0.00 | 77 | 1014.2 |
| 20260510071003 | 52 | 72 | 1.0 | 6.0 | 0.00 | 0.00 | 0.00 | 77 | 1014.2 |
| 20260510070502 | 52 | 78 | 2.0 | 6.0 | 0.00 | 0.00 | 0.00 | 77 | 1014.1 |
| 20260510070003 | 52 | 76 | 1.0 | 6.0 | 0.00 | 0.00 | 0.00 | 76 | 1014.0 |
| 20260510065524 | 52 | 59 | 2.0 | 11.0 | 0.00 | 0.00 | 0.00 | 75 | 1013.9 |
| 20260510065003 | 52 | 59 | 3.0 | 16.0 | 0.00 | 0.00 | 0.00 | 74 | 1013.5 |
| 20260510064502 | 53 | 70 | 5.0 | 16.0 | 0.00 | 0.00 | 0.00 | 72 | 1013.3 |
| 20260510064024 | 53 | 54 | 6.0 | 15.0 | 0.00 | 0.00 | 0.00 | 70 | 1013.1 |
| 20260510063502 | 54 | 57 | 6.0 | 16.0 | 0.00 | 0.00 | 0.00 | 67 | 1013.0 |
| 20260510063003 | 54 | 65 | 8.0 | 20.0 | 0.00 | 0.00 | 0.00 | 64 | 1012.7 |
| 20260510062503 | 55 | 57 | 9.0 | 20.0 | 0.00 | 0.00 | 0.00 | 63 | 1012.5 |
| 20260510062003 | 55 | 51 | 13.0 | 22.0 | 0.00 | 0.00 | 0.00 | 62 | 1012.4 |
| 20260510061503 | 55 | 41 | 12.0 | 25.0 | 0.00 | 0.00 | 0.00 | 62 | 1012.1 |
| 20260510061023 | 55 | 35 | 13.0 | 25.0 | 0.00 | 0.00 | 0.00 | 61 | 1012.1 |
| 20260510060503 | 55 | 35 | 15.0 | 26.0 | 0.00 | 0.00 | 0.00 | 61 | 1012.0 |
| 20260510060003 | 56 | 18 | 17.0 | 27.0 | 0.00 | 0.00 | 0.00 | 60 | 1011.9 |
| 20260510055502 | 56 | 23 | 17.0 | 29.0 | 0.00 | 0.00 | 0.00 | 60 | 1011.8 |
| 20260510054502 | 56 | 18 | 20.0 | 28.0 | 0.00 | 0.00 | 0.00 | 59 | 1011.4 |
| 20260510054003 | 56 | 15 | 17.0 | 41.0 | 0.00 | 0.00 | 0.00 | 59 | 1010.7 |
| 20260510053523 | 56 | 19 | 23.0 | 41.0 | 0.00 | 0.00 | 0.00 | 58 | 1010.1 |
| 20260510053003 | 56 | 9 | 21.0 | 37.0 | 0.00 | 0.00 | 0.00 | 57 | 1009.8 |
| 20260510052502 | 56 | 15 | 21.0 | 39.0 | 0.00 | 0.00 | 0.00 | 57 | 1009.4 |
| 20260510052024 | 57 | 11 | 28.0 | 39.0 | 0.00 | 0.00 | 0.00 | 56 | 1009.1 |
| 20260510051502 | 57 | 12 | 29.0 | 38.0 | 0.00 | 0.00 | 0.00 | 55 | 1008.8 |
| 20260510051003 | 57 | 12 | 24.0 | 37.0 | 0.00 | 0.00 | 0.00 | 55 | 1009.1 |
| 20260510050503 | 57 | 11 | 27.0 | 38.0 | 0.00 | 0.00 | 0.00 | 55 | 1008.9 |
| 20260510050024 | 58 | 8 | 25.0 | 38.0 | 0.00 | 0.00 | 0.00 | 54 | 1009.1 |
| 20260510045503 | 58 | 9 | 22.0 | 37.0 | 0.00 | 0.00 | 0.00 | 53 | 1009.1 |
| 20260510045002 | 58 | 13 | 23.0 | 38.0 | 0.00 | 0.00 | 0.00 | 53 | 1008.9 |
| 20260510044503 | 58 | 17 | 25.0 | 45.0 | 0.00 | 0.00 | 0.00 | 52 | 1008.5 |
| 20260510044003 | 59 | 11 | 27.0 | 45.0 | 0.00 | 0.00 | 0.00 | 52 | 1008.3 |
| 20260510043524 | 59 | 21 | 26.0 | 38.0 | 0.00 | 0.00 | 0.00 | 51 | 1008.5 |
| 20260510043024 | 59 | 15 | 26.0 | 43.0 | 0.00 | 0.00 | 0.00 | 51 | 1008.1 |
| 20260510042503 | 59 | 15 | 29.0 | 43.0 | 0.00 | 0.00 | 0.00 | 51 | 1008.3 |
| 20260510042003 | 59 | 15 | 33.0 | 44.0 | 0.00 | 0.00 | 0.00 | 51 | 1007.9 |
| 20260510041503 | 59 | 19 | 30.0 | 44.0 | 0.00 | 0.00 | 0.00 | 51 | 1007.8 |
| 20260510041002 | 59 | 14 | 28.0 | 39.0 | 0.00 | 0.00 | 0.00 | 51 | 1007.9 |
| 20260510040503 | 59 | 15 | 28.0 | 39.0 | 0.00 | 0.00 | 0.00 | 51 | 1007.6 |
| 20260510040003 | 60 | 16 | 27.0 | 42.0 | 0.00 | 0.00 | 0.00 | 50 | 1007.6 |
| 20260510035524 | 60 | 19 | 26.0 | 42.0 | 0.00 | 0.00 | 0.00 | 49 | 1007.4 |
| 20260510035003 | 61 | 15 | 24.0 | 40.0 | 0.00 | 0.00 | 0.00 | 46 | 1007.6 |
| 20260510034502 | 63 | 14 | 23.0 | 32.0 | 0.00 | 0.00 | 0.00 | 44 | 1007.6 |
| 20260510034003 | 63 | 12 | 10.0 | 19.0 | 0.00 | 0.00 | 0.00 | 40 | 1007.7 |
| 20260510033503 | 62 | 54 | 3.0 | 9.0 | 0.00 | 0.00 | 0.00 | 40 | 1007.6 |
| 20260510033003 | 62 | 133 | 0.0 | 2.0 | 0.00 | 0.00 | 0.00 | 40 | 1007.3 |
| 20260510032503 | 62 | 134 | 0.0 | 3.0 | 0.00 | 0.00 | 0.00 | 39 | 1006.9 |
| 20260510032004 | 62 | 133 | 0.0 | 5.0 | 0.00 | 0.00 | 0.00 | 39 | 1006.4 |
| 20260510031503 | 62 | 133 | 3.0 | 5.0 | 0.00 | 0.00 | 0.00 | 39 | 1006.2 |
| 20260510031024 | 63 | 133 | 3.0 | 4.0 | 0.00 | 0.00 | 0.00 | 38 | 1006.0 |
| 20260510030524 | 63 | 133 | 2.0 | 4.0 | 0.00 | 0.00 | 0.00 | 37 | 1005.9 |
| 20260510030044 | 63 | 133 | 2.0 | 5.0 | 0.00 | 0.00 | 0.00 | 37 | 1005.8 |
| 20260510025503 | 64 | 133 | 3.0 | 7.0 | 0.00 | 0.00 | 0.00 | 36 | 1005.5 |
| 20260510025003 | 64 | 133 | 3.0 | 7.0 | 0.00 | 0.00 | 0.00 | 35 | 1005.4 |
| 20260510024503 | 65 | 133 | 3.0 | 5.0 | 0.00 | 0.00 | 0.00 | 33 | 1005.3 |
| 20260510024003 | 65 | 133 | 3.0 | 4.0 | 0.00 | 0.00 | 0.00 | 32 | 1005.1 |
| 20260510023502 | 66 | 133 | 2.0 | 5.0 | 0.00 | 0.00 | 0.00 | 31 | 1005.0 |
| 20260510023003 | 67 | 133 | 2.0 | 5.0 | 0.00 | 0.00 | 0.00 | 30 | 1004.8 |
| 20260510022502 | 68 | 133 | 4.0 | 5.0 | 0.00 | 0.00 | 0.00 | 28 | 1004.7 |
| 20260510022003 | 69 | 133 | 3.0 | 7.0 | 0.00 | 0.00 | 0.00 | 27 | 1004.6 |
| 20260510021503 | 70 | 137 | 4.0 | 7.0 | 0.00 | 0.00 | 0.00 | 26 | 1004.6 |
| 20260510021002 | 70 | 142 | 1.0 | 2.0 | 0.00 | 0.00 | 0.00 | 24 | 1004.3 |
| 20260510020503 | 71 | 142 | 0.0 | 2.0 | 0.00 | 0.00 | 0.00 | 24 | 1004.2 |
| 20260510020002 | 71 | 142 | 0.0 | 3.0 | 0.00 | 0.00 | 0.00 | 24 | 1004.0 |
| 20260510015503 | 71 | 142 | 0.0 | 4.0 | 0.00 | 0.00 | 0.00 | 24 | 1003.9 |
| 20260510015003 | 71 | 142 | 1.0 | 4.0 | 0.00 | 0.00 | 0.00 | 23 | 1003.8 |
| 20260510014503 | 72 | 142 | 1.0 | 4.0 | 0.00 | 0.00 | 0.00 | 22 | 1003.7 |
| 20260510014003 | 72 | 142 | 2.0 | 4.0 | 0.00 | 0.00 | 0.00 | 21 | 1003.6 |
| 20260510013524 | 72 | 142 | 2.0 | 10.0 | 0.00 | 0.00 | 0.00 | 20 | 1003.6 |
| 20260510013023 | 72 | 142 | 2.0 | 11.0 | 0.00 | 0.00 | 0.00 | 20 | 1003.5 |
| 20260510012524 | 72 | 140 | 7.0 | 20.0 | 0.00 | 0.00 | 0.00 | 20 | 1003.4 |
| 20260510012002 | 72 | 134 | 8.0 | 20.0 | 0.00 | 0.00 | 0.00 | 19 | 1003.4 |
| 20260510011503 | 72 | 114 | 8.0 | 34.0 | 0.00 | 0.00 | 0.00 | 20 | 1003.5 |
| 20260510011002 | 72 | 81 | 9.0 | 36.0 | 0.00 | 0.00 | 0.00 | 22 | 1004.1 |
| 20260510010504 | 71 | 61 | 13.0 | 36.0 | 0.00 | 0.00 | 0.00 | 23 | 1004.2 |
| 20260510010004 | 70 | 30 | 0.0 | 9.0 | 0.00 | 0.00 | 0.00 | 28 | 1005.0 |
| 20260510005523 | 70 | 29 | 5.0 | 10.0 | 0.00 | 0.00 | 0.00 | 28 | 1004.8 |
| 20260510005003 | 71 | 49 | 4.0 | 11.0 | 0.00 | 0.00 | 0.00 | 28 | 1004.8 |
| 20260510004503 | 70 | 55 | 5.0 | 14.0 | 0.00 | 0.00 | 0.00 | 28 | 1004.6 |
| 20260510004002 | 71 | 59 | 7.0 | 14.0 | 0.00 | 0.00 | 0.00 | 28 | 1004.6 |
| 20260510003503 | 71 | 75 | 7.0 | 14.0 | 0.00 | 0.00 | 0.00 | 28 | 1004.5 |
| 20260510003045 | 71 | 58 | 5.0 | 17.0 | 0.00 | 0.00 | 0.00 | 28 | 1004.4 |
| 20260510002502 | 71 | 50 | 9.0 | 18.0 | 0.00 | 0.00 | 0.00 | 27 | 1003.9 |
| 20260510002003 | 72 | 34 | 14.0 | 19.0 | 0.00 | 0.00 | 0.00 | 26 | 1003.5 |
| 20260510001503 | 72 | 43 | 11.0 | 20.0 | 0.00 | 0.00 | 0.00 | 25 | 1003.1 |
| 20260510001023 | 73 | 91 | 4.0 | 20.0 | 0.00 | 0.00 | 0.00 | 24 | 1003.2 |
| 20260510000503 | 74 | 84 | 7.0 | 15.0 | 0.00 | 0.00 | 0.00 | 17 | 1003.1 |
| 20260510000002 | 74 | 65 | 3.0 | 8.0 | 0.00 | 0.00 | 0.00 | 19 | 1002.9 |
| 20260509235503 | 73 | 10 | 0.0 | 15.0 | 0.00 | 0.00 | 0.00 | 20 | 1003.1 |
| 20260509235003 | 73 | 10 | 1.0 | 18.0 | 0.00 | 0.00 | 0.00 | 20 | 1003.3 |
| 20260509234503 | 73 | 32 | 9.0 | 21.0 | 0.00 | 0.00 | 0.00 | 22 | 1003.1 |
| 20260509234003 | 74 | 23 | 15.0 | 22.0 | 0.00 | 0.00 | 0.00 | 22 | 1002.9 |
| 20260509233503 | 74 | 19 | 14.0 | 24.0 | 0.00 | 0.00 | 0.00 | 21 | 1002.9 |
| 20260509233002 | 75 | 25 | 16.0 | 24.0 | 0.00 | 0.00 | 0.00 | 20 | 1002.8 |
| 20260509232545 | 76 | 28 | 7.0 | 20.0 | 0.00 | 0.00 | 0.00 | 18 | 1002.8 |
| 20260509232002 | 76 | 62 | 6.0 | 11.0 | 0.00 | 0.00 | 0.00 | 19 | 1002.6 |
| 20260509231503 | 76 | 91 | 7.0 | 10.0 | 0.00 | 0.00 | 0.00 | 18 | 1002.0 |
| 20260509231003 | 76 | 91 | 4.0 | 12.0 | 0.00 | 0.00 | 0.00 | 18 | 1001.7 |
| 20260509230502 | 76 | 82 | 5.0 | 12.0 | 0.00 | 0.00 | 0.00 | 17 | 1001.7 |
| 20260509230003 | 76 | 91 | 3.0 | 11.0 | 0.00 | 0.00 | 0.00 | 19 | 1001.9 |
| 20260509225502 | 76 | 123 | 3.0 | 12.0 | 0.00 | 0.00 | 0.00 | 18 | 1001.9 |
| 20260509225003 | 76 | 93 | 4.0 | 16.0 | 0.00 | 0.00 | 0.00 | 18 | 1001.9 |
| 20260509224503 | 76 | 63 | 6.0 | 19.0 | 0.00 | 0.00 | 0.00 | 18 | 1001.8 |
| 20260509224003 | 76 | 65 | 9.0 | 22.0 | 0.00 | 0.00 | 0.00 | 18 | 1001.6 |
| 20260509223503 | 77 | 64 | 10.0 | 22.0 | 0.00 | 0.00 | 0.00 | 18 | 1001.5 |
| 20260509223003 | 77 | 66 | 10.0 | 22.0 | 0.00 | 0.00 | 0.00 | 18 | 1001.5 |
| 20260509222503 | 78 | 57 | 10.0 | 19.0 | 0.00 | 0.00 | 0.00 | 17 | 1001.5 |
| 20260509222002 | 78 | 60 | 8.0 | 19.0 | 0.00 | 0.00 | 0.00 | 17 | 1001.4 |
| 20260509221503 | 79 | 35 | 12.0 | 19.0 | 0.00 | 0.00 | 0.00 | 16 | 1001.4 |
| 20260509221002 | 80 | 46 | 7.0 | 16.0 | 0.00 | 0.00 | 0.00 | 15 | 1001.4 |
| 20260509220503 | 81 | 58 | 7.0 | 15.0 | 0.00 | 0.00 | 0.00 | 15 | 1001.3 |
| 20260509220003 | 82 | 60 | 9.0 | 15.0 | 0.00 | 0.00 | 0.00 | 14 | 1001.0 |
| 20260509215503 | 83 | 0 | 5.0 | 12.0 | 0.00 | 0.00 | 0.00 | 13 | 1001.0 |
| 20260509215002 | 84 | 287 | 3.0 | 8.0 | 0.00 | 0.00 | 0.00 | 13 | 1001.1 |
| 20260509214503 | 84 | 281 | 1.0 | 7.0 | 0.00 | 0.00 | 0.00 | 13 | 1001.3 |
| 20260509214024 | 83 | 281 | 2.0 | 7.0 | 0.00 | 0.00 | 0.00 | 13 | 1001.2 |
| 20260509213502 | 84 | 279 | 2.0 | 6.0 | 0.00 | 0.00 | 0.00 | 12 | 1001.3 |
| 20260509213024 | 84 | 279 | 0.0 | 6.0 | 0.00 | 0.00 | 0.00 | 12 | 1001.4 |
| 20260509212502 | 84 | 279 | 1.0 | 7.0 | 0.00 | 0.00 | 0.00 | 11 | 1001.4 |
| 20260509212003 | 85 | 277 | 3.0 | 9.0 | 0.00 | 0.00 | 0.00 | 12 | 1001.4 |
| 20260509211524 | 85 | 276 | 3.0 | 9.0 | 0.00 | 0.00 | 0.00 | 12 | 1001.4 |
| 20260509211023 | 85 | 273 | 1.0 | 5.0 | 0.00 | 0.00 | 0.00 | 11 | 1001.5 |
| 20260509210503 | 85 | 255 | 2.0 | 17.0 | 0.00 | 0.00 | 0.00 | 11 | 1001.7 |
| 20260509210002 | 85 | 226 | 4.0 | 17.0 | 0.00 | 0.00 | 0.00 | 11 | 1002.0 |
| 20260509205503 | 84 | 238 | 5.0 | 9.0 | 0.00 | 0.00 | 0.00 | 12 | 1001.9 |
| 20260509205002 | 84 | 150 | 2.0 | 8.0 | 0.00 | 0.00 | 0.00 | 13 | 1002.0 |
| 20260509204503 | 84 | 150 | 3.0 | 8.0 | 0.00 | 0.00 | 0.00 | 13 | 1002.1 |
| 20260509204003 | 84 | 150 | 2.0 | 11.0 | 0.00 | 0.00 | 0.00 | 14 | 1002.2 |
| 20260509203502 | 84 | 148 | 2.0 | 11.0 | 0.00 | 0.00 | 0.00 | 13 | 1002.3 |
| 20260509203003 | 85 | 128 | 1.0 | 10.0 | 0.00 | 0.00 | 0.00 | 14 | 1002.4 |
| 20260509202503 | 85 | 127 | 2.0 | 20.0 | 0.00 | 0.00 | 0.00 | 13 | 1002.4 |
| 20260509202002 | 84 | 129 | 3.0 | 20.0 | 0.00 | 0.00 | 0.00 | 13 | 1002.5 |